Flag for Belgium Weather past 2 weeks in Mons, Belgium

Now
81 °F

Warm.


Feels Like: 83 °F
Forecast: 60 / 76 °F
Wind: 9 mph from Southwest

Location: Chievres

Current Time: Jul 4, 2015 at 9:37:56 AM

Latest Report: Jul 4, 2015 at 8:55 AM


Visibility: N/A

Pressure: 30.07 "Hg

Humidity: 62%

Dew point: 66 °F

Location of MonsLocation

Historic Weather in Mons — Graph

°F

Mons temperature yesterday

Maximum temperature yesterday: 90 °F (at 6:55 PM)
Minimum temperature yesterday: 61 °F (at 3:25 AM)
Average temperature yesterday: 75 °F

Past Weeks' High & Low Weather Summary

 TemperatureHumidityPressure
High93 °F (Jul 1, 4:25 PM)100% (Jun 20, 5:03 AM)30.27 "Hg (Jun 20, 5:03 AM)
Low45 °F (Jun 24, 3:25 AM)28% (Jul 1, 5:25 PM)29.71 "Hg (Jun 22, 7:55 PM)
Average66 °F71%30.09 "Hg
* Reported Jun 19 8:25 AM — Jul 4 8:25 AM, Mons, Weather by CustomWeather, © 2015

Note: Actual official high and low records may vary slightly from our data, if they occured in-between our weather recording intervals... More about our weather records

Advertising

Mons weather history for previous 24 hours

 ConditionsComfort  
Time TempWeatherWind HumidityBarometerVisibility
8:25 AM
Sat, Jul 4
79 °FWarm.8 mph70%30.04 "HgN/A
7:55 AM79 °FWarm.7 mph65%30.04 "HgN/A
7:25 AM77 °FWarm.6 mph69%30.04 "HgN/A
6:55 AM73 °FMild.7 mph74%30.04 "HgN/A
6:25 AM72 °FMild.7 mph78%30.01 "HgN/A
5:55 AM75 °FMild.6 mph69%30.01 "HgN/A
5:25 AM73 °FMild.5 mph74%30.01 "HgN/A
4:55 AM75 °FMild.3 mph69%30.01 "HgN/A
4:25 AM73 °FMild.8 mph78%30.01 "HgN/A
3:55 AM75 °FMild.10 mph74%30.01 "HgN/A
3:25 AM75 °FMild.10 mph74%30.01 "HgN/A
2:55 AM77 °FWarm.10 mph69%30.01 "HgN/A
2:25 AM77 °FWarm.10 mph74%30.04 "HgN/A
1:55 AM77 °FWarm.8 mph74%30.04 "HgN/A
1:25 AM79 °FPassing clouds.9 mph70%30.07 "HgN/A
12:55 AM79 °FPassing clouds.10 mph65%30.07 "HgN/A
12:25 AM79 °FPassing clouds.10 mph65%30.07 "HgN/A
11:55 PM
Fri, Jul 3
77 °FWarm.8 mph69%30.07 "HgN/A
11:25 PM79 °FWarm.9 mph65%30.09 "HgN/A
10:55 PM79 °FPartly sunny.8 mph65%30.09 "HgN/A
10:25 PM79 °FPartly sunny.7 mph65%30.09 "HgN/A
9:55 PM81 °FPartly sunny.7 mph62%30.09 "HgN/A
9:25 PM81 °FScattered clouds.7 mph58%30.09 "HgN/A
8:55 PM82 °FWarm.7 mph58%30.09 "HgN/A
8:25 PM84 °FWarm.7 mph55%30.09 "HgN/A
7:55 PM86 °FWarm.9 mph52%30.12 "HgN/A
7:25 PM86 °FPassing clouds.8 mph52%30.12 "HgN/A
6:55 PM90 °FHot.9 mph46%30.12 "HgN/A
6:25 PM88 °FWarm.9 mph46%30.15 "HgN/A
5:55 PM88 °FWarm.9 mph46%30.15 "HgN/A
5:25 PM88 °FWarm.9 mph46%30.15 "HgN/A
4:55 PM88 °FWarm.7 mph46%30.18 "HgN/A
4:25 PM88 °FWarm.8 mph49%30.18 "Hg1 mi
3:55 PM88 °FWarm.9 mph46%30.18 "HgN/A
3:25 PM88 °FWarm.8 mph43%30.21 "HgN/A
2:55 PM86 °FWarm.7 mph52%30.21 "HgN/A
2:25 PM84 °FWarm.6 mph51%30.21 "HgN/A
1:55 PM84 °FWarm.7 mph51%30.21 "HgN/A
1:25 PM82 °FWarm.5 mph55%30.24 "HgN/A
12:55 PM81 °FWarm.6 mph58%30.24 "HgN/A
12:25 PM81 °FWarm.5 mph54%30.24 "HgN/A
11:55 AM79 °FWarm.6 mph58%30.24 "HgN/A
11:25 AM77 °FWarm.3 mph61%30.27 "HgN/A
10:55 AM75 °FMild.3 mph65%30.27 "HgN/A
10:25 AM75 °FMild.3 mph65%30.27 "HgN/A
9:55 AM73 °FMild.5 mph69%30.27 "HgN/A
9:25 AM70 °FMild.5 mph78%30.27 "HgN/A
Weather by CustomWeather, © 2015

See weather overviewHow to use our weather pages